[[{"header":{"parameterUnit":"m.s-1","parameterCategory":1,"la1":30.2991,"la2":30.254,"lo1":-89.0895,"lo2":-89.0444,"dy":0.0017,"dx":0.0017,"nx":28,"ny":28,"refTime":"2024-12-31T09:00:00:Z","depth":0,"parameterNumber":2,"parameterNumberName":"U-component_of_WINDS"},"data":[0,0,0,0,0,0,0,0,0,0,0,0,0,0,0,0,0,0,0,0,0,0,0,0,0,0,0,0,0,0,0,0,0,0,0,0,0,0,0,0,0,0,0,0,0,0,0,0,0,0,0,0,0,0,0,0,0,0,2.6461,2.6462,0,2.6519,2.652,2.652,2.6467,2.6465,2.6463,2.6461,2.6524,2.6528,2.6531,0,0,0,0,0,0,0,0,0,0,0,0,0,2.6309,2.6312,2.6461,2.6462,2.6463,2.6519,2.652,2.652,2.6468,2.6465,2.6462,2.646,2.6523,2.6527,2.6532,0,0,0,0,0,0,0,0,0,0,0,0,0,2.6372,2.6313,2.6461,2.6443,2.6442,2.6519,2.652,2.6521,2.6468,2.6465,2.6462,2.6459,2.6522,2.6527,2.6532,2.6632,0,0,2.6549,2.6552,0,0,0,0,0,0,0,0,2.6368,2.6378,2.6445,2.6444,2.6443,2.6482,2.6489,2.6558,2.6469,2.6458,2.6461,2.6457,2.6513,2.6519,2.6537,2.6635,2.6637,2.655,2.6553,2.6556,2.6557,0,0,0,0,0,0,0,2.6364,2.6375,2.6484,2.6446,2.6445,2.6433,2.6439,2.6502,2.6503,2.6459,2.6455,2.6463,2.6512,2.6532,2.6538,2.6638,2.655,2.6555,2.6558,2.656,2.6821,2.6825,0,0,0,0,0,0,2.6361,2.6372,2.6482,2.6486,2.6397,2.6439,2.6444,2.6473,2.6502,2.6504,2.6465,2.646,2.6524,2.6532,2.654,2.6659,2.6556,2.6561,2.6564,2.6818,2.6822,2.6826,0,0,0,0,0,0,2.6358,2.6371,2.648,2.6428,2.6441,2.6445,2.6477,2.6476,2.6496,2.6507,2.6508,2.6485,2.6522,2.6533,2.6609,2.6661,2.6563,2.6568,2.6813,2.6819,2.6824,2.6898,0,0,0,0,0,0,2.6354,2.6371,2.6407,2.6429,2.6444,2.6547,2.648,2.6479,2.6505,2.6499,2.6526,2.6527,2.652,2.6601,2.6615,2.6667,2.6573,2.6809,2.6816,2.6822,2.6891,2.6905,2.6917,0,0,0,0,0,2.6349,2.6426,2.6409,2.6423,2.6489,2.655,2.6558,2.6547,2.6509,2.6547,2.6555,2.6527,2.6653,2.661,2.6624,2.6679,2.6806,2.6814,2.6822,2.6885,2.6902,2.6917,0,0,0,0,0,0,2.6412,2.6429,2.641,2.6497,2.6522,2.654,2.6587,2.6566,2.6603,2.6596,2.6582,2.6589,2.667,2.6682,2.6633,2.6777,2.6723,2.6735,2.6766,2.6783,2.6796,2.6792,2.6577,0,0,0,0,0,2.6435,2.6482,2.6495,2.657,2.6584,2.6584,2.6609,2.6599,2.6625,2.6636,2.6649,2.6677,2.6722,2.6753,2.6796,2.6892,2.6898,2.6937,2.695,2.6961,2.6971,2.7024,2.7042,2.6853,2.6852,2.6852,0,0,2.6486,2.6501,2.6531,2.6583,2.6601,2.6651,2.6593,2.6648,2.6685,2.6645,2.6718,2.6728,2.6758,2.6846,2.6885,2.6858,2.7025,2.6971,2.698,2.6984,2.7035,2.7052,2.7068,2.6858,2.6857,2.6856,0,0,2.6602,2.6618,2.6682,2.6702,2.673,2.673,2.6746,2.6768,2.6773,2.6846,2.6817,2.6862,2.6941,2.6964,2.6986,2.7112,2.7089,2.7127,2.7196,2.7248,2.7263,2.7276,2.7323,2.734,2.7137,2.7137,2.7137,0,2.6661,2.6734,2.6719,2.6776,2.6801,2.6765,2.6832,2.6852,2.6894,2.6912,2.6881,2.6981,2.6998,2.7091,2.7122,2.7141,2.7159,2.7124,2.7262,2.7275,2.7287,2.7332,2.7349,2.7142,2.7141,2.7141,2.714,0,2.6805,2.6856,2.6906,2.6946,2.6976,2.7037,2.7034,2.7066,2.7053,2.7057,2.7133,2.7152,2.7199,2.722,2.7209,2.7312,2.7295,2.7264,2.721,2.731,2.7352,2.7368,2.7148,2.7147,2.7145,2.7144,0,0,2.6963,2.6994,2.7013,2.7031,2.706,2.71,2.7161,2.7206,2.7235,2.7265,2.7317,2.7385,2.7356,2.7381,2.7372,2.7417,2.7518,2.7381,2.7381,2.7406,2.7635,2.7659,2.7679,2.7502,2.7505,2.7508,2.7633,0,2.7081,2.7186,2.7175,2.7275,2.7323,2.7291,2.7344,2.7368,2.7374,2.7416,2.7422,2.7471,2.7429,2.7444,2.7488,2.7497,2.7564,2.7487,2.7552,2.7555,2.7546,2.77,2.7726,2.7843,2.7649,2.7652,2.7654,0,2.7233,2.7268,2.7373,2.7395,2.7415,2.7463,2.7504,2.7544,2.7572,2.7573,2.7602,2.7585,2.7648,2.7592,2.768,2.7628,2.7654,2.7663,2.7667,2.7673,2.7611,2.7712,2.788,2.7898,2.7679,2.7677,2.7675,0,2.7339,2.7412,2.7484,2.7501,2.7529,2.7564,2.7577,2.7602,2.763,2.7666,2.7685,2.7728,2.7753,2.7787,2.7784,2.7743,2.7874,2.7817,2.7878,2.7878,2.7907,2.7906,2.8083,2.7922,2.7922,2.7922,2.7921,0,2.7473,2.7538,2.7532,2.7577,2.765,2.7638,2.7711,2.7721,2.7743,2.7791,2.7766,2.7811,2.7802,2.7848,2.7846,2.792,2.7931,2.7934,2.7933,2.7937,2.7937,2.7955,2.7947,2.7926,2.7925,2.7925,2.7924,0,2.7603,2.7602,2.7679,2.7699,2.7706,2.7759,2.7777,2.7821,2.7824,2.7884,2.7897,2.7903,2.7956,2.7955,2.8015,2.8014,2.8105,2.8094,2.8095,2.8093,2.8154,2.8149,2.835,2.8376,2.8198,2.82,2.8201,0,2.7689,2.7739,2.7765,2.7794,2.781,2.7857,2.7885,2.7876,2.7907,2.7943,2.7982,2.8032,2.8072,2.8158,2.8168,2.8215,2.8205,2.8273,2.8212,2.8215,2.8208,2.8205,2.8211,2.8285,2.8287,2.8288,2.829,0,2.7842,2.7839,2.788,2.7922,2.7956,2.7989,2.8019,2.8045,2.8039,2.8075,2.8128,2.8159,2.822,2.8271,2.8316,2.8331,2.8311,2.8308,2.8325,2.833,2.8329,2.8332,2.8129,2.8304,2.8303,2.8302,2.8301,2.83,2.7953,2.7996,2.8022,2.8069,2.809,2.8119,2.8161,2.817,2.8213,2.8262,2.8254,2.8313,2.8342,2.84,2.8419,2.8467,2.8444,2.8468,2.8474,2.848,2.8488,2.8321,2.8475,2.8475,2.8475,2.8474,2.8474,0,2.8105,2.812,2.8164,2.8206,2.8244,2.822,2.8252,2.8286,2.8338,2.8366,2.8405,2.8467,2.8517,2.8531,2.858,2.8615,2.8607,2.8628,2.8626,2.863,2.8505,2.8486,2.8634,2.8634,2.8634,2.8634,2.8634,2.8634,2.8189,2.8261,2.8262,2.8345,2.836,2.8417,2.8438,2.8465,2.8487,2.8557,2.8598,2.8606,2.863,2.8679,2.8724,2.8727,2.8747,2.8773,2.8772,2.8655,2.8639,2.8624,2.8606,2.8777,2.8777,2.8894,2.8895,2.8895]},{"header":{"parameterUnit":"m.s-1","parameterCategory":1,"la1":30.2991,"la2":30.254,"lo1":-89.0895,"lo2":-89.0444,"dy":0.0017,"dx":0.0017,"nx":28,"ny":28,"refTime":"2024-12-31T09:00:00:Z","depth":0,"parameterNumber":3,"parameterNumberName":"V-component_of_WINDS"},"data":[0,0,0,0,0,0,0,0,0,0,0,0,0,0,0,0,0,0,0,0,0,0,0,0,0,0,0,0,0,0,0,0,0,0,0,0,0,0,0,0,0,0,0,0,0,0,0,0,0,0,0,0,0,0,0,0,0,0,1.9641,1.9642,0,1.9752,1.9754,1.9755,1.9753,1.9751,1.975,1.9748,1.9862,1.9866,1.9871,0,0,0,0,0,0,0,0,0,0,0,0,0,1.9424,1.9428,1.964,1.9642,1.9643,1.9752,1.9754,1.9755,1.9753,1.9751,1.9749,1.9748,1.9861,1.9866,1.9871,0,0,0,0,0,0,0,0,0,0,0,0,0,1.9525,1.9429,1.964,1.9655,1.9658,1.9752,1.9754,1.9756,1.9753,1.9751,1.9749,1.9747,1.9859,1.9865,1.9872,1.9958,0,0,1.9892,1.9895,0,0,0,0,0,0,0,0,1.9519,1.9533,1.9652,1.9654,1.9657,1.9736,1.9719,1.9824,1.9754,1.9717,1.9748,1.9746,1.9822,1.9831,1.9857,1.9963,1.9968,1.9893,1.9897,1.99,1.9901,0,0,0,0,0,0,0,1.9512,1.9528,1.9685,1.9653,1.9657,1.9656,1.9668,1.9739,1.9781,1.972,1.972,1.9733,1.9823,1.9851,1.986,1.997,1.9893,1.9898,1.9903,1.9905,2.0153,2.0156,0,0,0,0,0,0,1.9502,1.9522,1.9681,1.9688,1.9581,1.9662,1.9675,1.9713,1.978,1.9788,1.9735,1.9733,1.9841,1.9852,1.9864,1.997,1.99,1.9906,1.991,2.0151,2.0154,2.0157,0,0,0,0,0,0,1.9498,1.9517,1.9677,1.9605,1.9626,1.9668,1.9711,1.9717,1.9745,1.9792,1.9799,1.9756,1.9839,1.9855,1.9935,1.9974,1.9909,1.9915,2.0148,2.0152,2.0155,2.0183,0,0,0,0,0,0,1.9492,1.9515,1.9548,1.9606,1.963,1.9746,1.9713,1.972,1.9756,1.9754,1.9813,1.9821,1.9839,1.9925,1.9942,1.9982,1.992,2.0144,2.0149,2.0154,2.0179,2.0188,2.0195,0,0,0,0,0,1.9484,1.9551,1.955,1.9569,1.9672,1.9748,1.9762,1.9781,1.9759,1.9793,1.9823,1.9819,1.9967,1.9933,1.9952,1.9995,2.0142,2.0148,2.0154,2.0176,2.0186,2.0195,0,0,0,0,0,0,1.9497,1.9559,1.9558,1.9647,1.9692,1.9748,1.9791,1.9792,1.9844,1.984,1.9862,1.9875,1.9956,1.9983,1.9945,2.0083,2.0052,2.0062,2.0062,2.0072,2.008,2.0072,1.9926,0,0,0,0,0,1.951,1.9567,1.9618,1.9691,1.9714,1.9749,1.9783,1.9794,1.9842,1.9861,1.9897,1.9943,2.0,2.0038,2.0093,2.0182,2.0196,2.0221,2.0229,2.0236,2.0244,2.0295,2.0307,2.0176,2.0176,2.0176,0,0,1.9538,1.9579,1.9613,1.9695,1.9731,1.979,1.9765,1.9828,1.9871,1.987,1.9949,1.9977,2.003,2.0116,2.0155,2.0141,2.0283,2.0243,2.0248,2.0253,2.0302,2.0314,2.0325,2.018,2.0179,2.0178,0,0,1.9618,1.9655,1.972,1.9758,1.9813,1.9836,1.9852,1.9907,1.9926,2.0005,2.0006,2.0058,2.0155,2.0194,2.0226,2.0321,2.0319,2.0338,2.0381,2.043,2.044,2.0449,2.0484,2.0496,2.0347,2.0347,2.0347,0,1.9646,1.9734,1.9754,1.9817,1.9853,1.9855,1.9922,1.9957,2.0028,2.0052,2.0035,2.0159,2.0194,2.029,2.0313,2.0338,2.0357,2.0332,2.0437,2.0446,2.0455,2.0489,2.0502,2.0349,2.0348,2.0348,2.0348,0,1.9766,1.9827,1.9873,1.9942,1.9983,2.0048,2.0077,2.0116,2.0123,2.0148,2.0228,2.0271,2.0336,2.0359,2.0366,2.0455,2.0445,2.0432,2.0402,2.047,2.0502,2.0515,2.0352,2.0351,2.035,2.035,0,0,1.9859,1.9938,1.9954,1.9986,2.0048,2.0096,2.016,2.0223,2.0257,2.0305,2.0361,2.0443,2.0432,2.0468,2.048,2.0523,2.0597,2.0505,2.0507,2.0522,2.0699,2.0709,2.0724,2.0595,2.0598,2.06,2.0695,0,1.9947,2.0062,2.0082,2.0183,2.024,2.0243,2.0299,2.0343,2.0367,2.0419,2.0446,2.0504,2.0484,2.0507,2.0549,2.0579,2.0633,2.0572,2.0648,2.065,2.0636,2.074,2.0751,2.0839,2.0707,2.0709,2.0711,0,2.0065,2.0118,2.0225,2.028,2.0305,2.0355,2.0415,2.0464,2.0514,2.0529,2.057,2.0577,2.0644,2.0609,2.0702,2.0661,2.0692,2.0712,2.0715,2.0724,2.0686,2.0753,2.0867,2.088,2.0731,2.0729,2.0728,0,2.0124,2.0221,2.0298,2.0325,2.039,2.0426,2.0455,2.0502,2.0539,2.0591,2.0616,2.0674,2.0707,2.0752,2.0775,2.0747,2.0867,2.0834,2.0881,2.0881,2.0907,2.0906,2.1029,2.0925,2.0925,2.0925,2.0925,0,2.0221,2.0287,2.0326,2.0373,2.0447,2.0468,2.054,2.0568,2.061,2.0663,2.0668,2.0718,2.0744,2.0797,2.0815,2.089,2.0904,2.0918,2.0923,2.0919,2.0917,2.0941,2.0936,2.0928,2.0928,2.0927,2.0926,0,2.03,2.0328,2.0412,2.0467,2.0483,2.0535,2.0582,2.0628,2.0652,2.0719,2.0736,2.0773,2.0836,2.0863,2.094,2.0952,2.1039,2.1037,2.1022,2.1024,2.107,2.1066,2.1214,2.1235,2.1116,2.1117,2.1118,0,2.0361,2.0411,2.0472,2.0508,2.0538,2.0596,2.0634,2.0657,2.0696,2.0757,2.0796,2.0859,2.0911,2.1011,2.1045,2.1105,2.1106,2.1154,2.1115,2.111,2.1108,2.1106,2.1111,2.1161,2.1162,2.1163,2.1164,0,2.0466,2.0478,2.0533,2.0593,2.0638,2.0686,2.0733,2.0762,2.0792,2.0836,2.0901,2.0941,2.102,2.1083,2.1144,2.1174,2.1175,2.1176,2.119,2.1188,2.1177,2.1185,2.1043,2.1173,2.1172,2.1171,2.1171,2.1171,2.0539,2.0584,2.0635,2.0696,2.0733,2.0777,2.0824,2.0854,2.0908,2.0975,2.0985,2.1054,2.1103,2.1185,2.1217,2.1272,2.126,2.128,2.1286,2.1291,2.1294,2.1167,2.1283,2.1282,2.1282,2.1282,2.1282,0,2.0646,2.0678,2.0734,2.08,2.0848,2.0845,2.0896,2.0937,2.0998,2.1044,2.1095,2.117,2.1231,2.127,2.1331,2.1367,2.1369,2.1383,2.1381,2.1388,2.1301,2.1283,2.138,2.138,2.138,2.138,2.138,2.138,2.0707,2.0785,2.0802,2.0898,2.093,2.0999,2.1029,2.107,2.1106,2.119,2.1241,2.1266,2.1309,2.1374,2.143,2.1439,2.1462,2.1477,2.1486,2.1404,2.1394,2.1384,2.1368,2.1481,2.1482,2.1569,2.157,2.157]}]]